STARLINK-3793, 52380

Orbit data source: Space-Track

STARLINK-3793, 52380 is a payload satellite owned by SpaceX/Seattle (US) in LEO that was launched on Fri, 29 Apr 2022 UTC via an FALCON 9 launch vehicle from the Air Force Eastern Test Range (AFETR). Payload-class satellites include a variety of spacecraft equipped with specific instruments for various scientific and technological missions. These include communications satellites like Starlink; space stations such as the ISS; scientific satellites like the Hubble; Earth observation satellites from companies like Planet Labs, Umbra, and HawkEye 360; GPS; miniature CubeSats for education and research; and military/defense satellites.

Loading next visibility...
Identifier
52380, 2022-045BB
Orbit
LEO
Country
Flag of USUS
Related business
Manufacturer
SpaceX/Seattle
Mission
Operational Commercial Communications
Bus & Motor
STARLINK, Unknown motor
Mass
297 kg wet, ~275 kg dry
Launch date (UTC)
2022-04-29 (4 years ago)
Launch vehicle
FALCON 9
Launch site
Air Force Eastern Test Range (AFETR)
Object type
Payload
Rocket body
Debris
Shape & HBR
Box + 1 Pan, 10.1 m
Radar Cross Section
11.087 m², Large (>1 m²)

Expand to show TLE details & history
Last TLE update: 3 days ago

TLE from 3 days ago
0 STARLINK-3793
1 52380U 22045BB  26170.92864214  .00000173  00000-0  28966-4 0  9999
2 52380  53.1611  80.0717 0001388  92.3049 267.8102 15.08834471231493
Epoch: 2026-06-19T22:17Z
TLE epoch observation values (Epoch: 2026-06-19T22:17:14.680Z)
Latitude
0.00001°
Longitude
-162.39004°
Altitude
540.689 km
Speed
7.593 km/s
True Right ascension
05h 20m 17s
True Declination
0° 00' 00"
Sunlit
Object was in daylight at epoch
Visualization orbit readout
Latitude
Unknown
Longitude
Unknown
Altitude
Unknown
Speed
Unknown
Apparent Right ascension
Unknown
Apparent Declination
Unknown
Sunlit
N/A
Visualization observer readout
Local Sidereal Time
21:41:39
Azimuth
Unknown
Elevation
Unknown
Doppler factor
Unknown
Orbital elements
Apogee altitude
540.974 km
Perigee altitude
539.054 km
Semi-major axis
6,918.151 km
Eccentricity
0.00014
Inclination
53.1611°
RAAN
80.0717°
Arg. of periapsis
92.3049°
True anomaly
267.79431°
Mean anomaly
267.8102°
Eccentric anomaly
267.80225°
Mean motion
3.77188 °/min
Orbital period
95.44 mins
BSTAR
0.000028966
Loading maneuver chart data...
Computing Atmospheric mass density...
Loading historical data...
Loading historical data...
Loading historical data...
Loading historical data...
Loading historical data...
Loading historical data...
Loading historical data...

Documentation

Showing up to 5 results
|